Regional Weather Roundup
Issued by NWS

Home | Current Version | Previous Version | Graphics & Text | Print | Product List | Glossary On
Versions: 1 2 3 4 5 6 7 8 9 10 11 12 13 14 15 16 17 18 19 20 21 22 23 24 25 26 27 28 29 30 31 32 33 34 35 36 37 38 39 40 41 42 43 44 45 46 47 48 49 50
346
ASUS43 KOAX 041410
RWRNE

WEATHER ROUNDUP FOR NEBRASKA
NATIONAL WEATHER SERVICE OMAHA NE
900 AM CDT WED MAY 04 2016

NOTES: SATELLITE DATA IS BEING USED TO AUGMENT CLOUD COVER ABOVE
       12000 FEET.
       "FAIR" INDICATES FEW OR NO CLOUDS BELOW 12,000 FEET WITH NO
       SIGNIFICANT WEATHER AND/OR OBSTRUCTIONS TO VISIBILITY.

  * THESE STATIONS DO NOT REPORT WEATHER SUCH AS RAIN...SNOW OR FOG.

NEZ001>004-019>022-054>056-041500-
NEBRASKA PANHANDLE

CITY           SKY/WX    TMP DP  RH WIND       PRES   REMARKS
SCOTTSBLUFF    SUNNY     50  41  71 NW10      30.22R
ALLIANCE       SUNNY     51  41  68 MISG      30.20R
CHADRON        SUNNY     51  43  74 W5        30.19S
KIMBALL        SUNNY     51  42  71 W8        30.24S
SIDNEY         SUNNY     51  42  71 NW7       30.22R
$$

NEZ057>060-069>072-079>082-041500-
SOUTHWEST NEBRASKA

CITY           SKY/WX    TMP DP  RH WIND       PRES   REMARKS
NORTH PLATTE   SUNNY     52  44  74 NW6       30.16R
IMPERIAL       SUNNY     53  41  63 N14       30.18R
LEXINGTON      SUNNY     52  44  73 N6        30.14S
MCCOOK         SUNNY     54  44  69 NW6       30.16R
OGALLALA       SUNNY     55  43  64 CALM      30.18S
$$

NEZ005>010-023>029-035>040-094-041500-
NORTH CENTRAL NEBRASKA

CITY           SKY/WX    TMP DP  RH WIND       PRES   REMARKS
VALENTINE      SUNNY     53  38  56 NW3       30.16R
AINSWORTH      SUNNY     53  37  56 NW3       30.15R
BROKEN BOW     SUNNY     55  37  50 N9        30.14R
O`NEILL        SUNNY     53  36  50 N8        30.13R
ORD            SUNNY     52  41  66 NW8       30.11R
THEDFORD       SUNNY     55  44  66 NW3       30.17S
$$

NEZ041-046>049-061>064-073>077-083>087-041500-
SOUTH CENTRAL NEBRASKA

CITY           SKY/WX    TMP DP  RH WIND       PRES   REMARKS
GRAND ISLAND   SUNNY     54  37  52 N13       30.11R
AURORA         SUNNY     54  38  54 N14       30.10R
HASTINGS       SUNNY     54  39  57 N14       30.10R
HEBRON         SUNNY     56  38  50 N8        30.08
HOLDREGE       SUNNY     54  40  58 N9        30.13R
KEARNEY *      SUNNY     54  37  54 N9        30.13R
YORK           SUNNY     54  37  54 N13G23    30.08R
$$

NEZ011>018-030>034-042>045-041500-
NORTHEAST NEBRASKA

CITY           SKY/WX    TMP DP  RH WIND       PRES   REMARKS
NORFOLK        SUNNY     52  36  54 N12       30.09R
ALBION         SUNNY     52  38  58 N9        30.10R
BLAIR          SUNNY     53  38  56 N12       30.03R
COLUMBUS *     SUNNY     54  34  47 N15       30.09R
FREMONT        SUNNY     53  37  53 N8        30.06R
TEKAMAH        SUNNY     53  39  59 N14       30.05R
WAYNE          SUNNY     52  37  57 N12       30.09R
$$

NEZ050>053-065>068-078-088>093-041500-
SOUTHEAST NEBRASKA

CITY           SKY/WX    TMP DP  RH WIND       PRES   REMARKS
LINCOLN        SUNNY     57  36  45 N16       30.07R
OMAHA EPPLEY   SUNNY     54  38  54 N14       30.03R
BEATRICE       SUNNY     55  39  53 N16       30.05R
FALLS CITY     SUNNY     57  39  51 N13       29.99R
NEBRASKA CITY  SUNNY     55  35  47 N14       30.02R
PLATTSMOUTH    SUNNY     56  38  49 N9G16     30.03R
$$

NEZ044-045-051>053-067-041500-
OMAHA AREA

CITY           SKY/WX    TMP DP  RH WIND       PRES   REMARKS
OMAHA EPPLEY   SUNNY     54  38  54 N14       30.03R
BLAIR          SUNNY     53  38  56 N12       30.03R
FREMONT        SUNNY     53  37  53 N8        30.06R
MILLARD        SUNNY     56  37  49 N6        30.03R
OFFUTT AFB     SUNNY     55  37  50 N15       30.02R
PLATTSMOUTH    SUNNY     56  38  49 N9G16     30.03R
WAHOO          FAIR      54  37  53 N15       30.06R
$$




USA.gov is the U.S. government's official web portal to all federal, state and local government web resources and services.